Regional Weather Roundup
Issued by NWS

Home | Current Version | Previous Version | Graphics & Text | Print | Product List | Glossary On
Versions: 1 2 3 4 5 6 7 8 9 10 11 12 13 14 15 16 17 18 19 20 21 22 23 24 25 26 27 28
000
ASUS45 KCYS 231610
RWRWY

WYOMING REGIONAL WEATHER ROUNDUP
NATIONAL WEATHER SERVICE CHEYENNE WY
1000 AM MDT SUN JUL 23 2017

NOTE:  "FAIR" INDICATES FEW OR NO CLOUDS BELOW 12,000 FEET
WITH NO SIGNIFICANT WEATHER AND/OR OBSTRUCTIONS TO VISIBILITY.

WYZ001-231700-
YELLOWSTONE NATIONAL PARK

CITY           SKY/WX    TMP DP  RH WIND       PRES   REMARKS
LK YELLOWSTONE   N/A     60  48  64 E5        30.40F
W YELLOWSTONE  NOT AVBL

$$
WYZ002>013-054>058-071-098>099-231700-
NORTHERN WYOMING

CITY           SKY/WX    TMP DP  RH WIND       PRES   REMARKS
JACKSON        SUNNY     63  39  42 MISG      30.32F
CODY           FAIR      77  39  25 CALM      30.18F
GREYBULL       FAIR      76  40  27 CALM      30.10F
WORLAND        FAIR      76  39  26 W6        30.12F
SHERIDAN       FAIR      74  39  28 CALM      30.12S
BUFFALO        FAIR      80  33  18 CALM      30.17F
GILLETTE       FAIR      82  42  24 S14       30.13F
HULETT         FAIR      79  41  25 NW3       30.16F
NEWCASTLE      FAIR      77  36  22 S3        30.16F

$$
WYZ014>020-022>026-101>103-231700-
CENTRAL WYOMING

CITY           SKY/WX    TMP DP  RH WIND       PRES   REMARKS
BIG PINEY      FAIR      67  39  35 E3        30.33F
PINEDALE       FAIR      68  39  34 CALM      30.34F
DUBOIS         FAIR      68  32  26 N3        30.33F
LANDER         FAIR      76  38  25 E3        30.23R
RIVERTON       FAIR      75  38  26 VRB3      30.21F
CASPER         FAIR      77  39  25 SW3       30.20F
DOUGLAS        FAIR      76  48  37 CALM      30.19F

$$
WYZ021-027>030-104>119-231700-
SOUTHERN WYOMING

CITY           SKY/WX    TMP DP  RH WIND       PRES   REMARKS
EVANSTON       FAIR      69  37  30 N7        30.33S
KEMMERER         N/A     70  32  24 CALM      30.35S
FORT BRIDGER   FAIR      73  32  22 NW3       30.35S
ROCK SPRINGS   FAIR      75  32  20 CALM      30.30F
RAWLINS        FAIR      74  38  27 CALM      30.32S
SARATOGA       FAIR      77  41  27 SE10G20   30.33F
LARAMIE        FAIR      73  43  33 VRB3      30.35S
CHEYENNE       FAIR      80  53  39 VRB5      30.27S
TORRINGTON     FAIR      75  54  47 W5        30.14S
PINE BLUFFS    FAIR      81  46  30 S6        30.21F

$$




USA.gov is the U.S. government's official web portal to all federal, state and local government web resources and services.